KLGATNCM

Guest
Details From KLGA - La Guardia
To TNCM - St Maarten - Princess Juliana Intl
Flight Number -
Tags decoded
Created
Modified
Stats Distance 1,482 nm / 2,744 km
Max Altitude 0 ft / 0 m
Waypoints 6
Social Downloads 6
Likes 0
Share VATSIM

Download

Looking for another format? Having issues loading an existing format? Contact us
Advertisement - Login to hide

Notes

Requested: KLGA BEXUM PJM09 PJM07 PJM02 TNCM

Route

KLGA BEXUM PJM09 PJM07 PJM02 TNCM

ID Type Via Altitude Latitude Longitude Leg Dist Tot Dist Heading (true) Name
O KLGA APT - 0 ft / 0 m 40.77724˚ -73.87261˚ - 0 nm - La Guardia
BEXUM FIX - 0 ft / 0 m 33.30231˚ -69.81248˚ 489 nm 489 nm 155° / 158° -
PJM09 FIX - 0 ft / 0 m 18.02230˚ -63.27493˚ 982 nm 1472 nm 157° / 160° -
PJM07 FIX - 0 ft / 0 m 18.02582˚ -63.24012˚ 1 nm 1474 nm 84° / 84° -
PJM02 FIX - 0 ft / 0 m 18.03461˚ -63.15309˚ 4 nm 1479 nm 84° / 84° -
O TNCM APT - 0 ft / 0 m 18.04089˚ -63.10897˚ 2 nm 1481 nm 81° / 81° St Maarten - Princess Juliana Intl

Altitude Profile

Advertisement - Login to hide

Weather


0- 5 10 15 20 25 30 35+ Temperature / ° C

Clouds and Precipitation
Forecast for 2018-05-25 06:00 UTC. Updated 3 hours ago

Ground ~20,000 ft ~40,000 ft Winds

KLGA

Details ICAO KLGA (LGA)
Name La Guardia
Region United States
Timezone America/New_York (UTC-4.0)
Stats Elevation 22 ft / 7 m (AMSL)
Location 40.777236° -73.872610°
Runways 2
Magnetic Variation 12.967° W

METAR

KLGA 250751Z 24008KT 10SM CLR 21/10 A3005 RMK AO2 SLP174 T02110100

Decode

TAF

KLGA 250528Z 2506/2612 23008KT P6SM FEW250 FM251600 22015G23KT P6SM SCT200 FM252100 22018G26KT P6SM FEW250 FM260000 22013G20KT P6SM FEW060 FM260300 23009KT P6SM FEW060

Decode

Departure Runways

ID Width Length Bearing (true) Bearing (mag) Surface Threshold Offset Overrun Length
04 151 ft / 46 m 7,002 ft / 2,134 m 32.04° 45.01° Asphalt 0 ft / 0 m 312 ft / 95 m
13 151 ft / 46 m 6,990 ft / 2,130 m 122.24° 135.21° Asphalt 0 ft / 0 m 98 ft / 30 m
22 151 ft / 46 m 7,002 ft / 2,134 m 212.05° 225.02° Asphalt 0 ft / 0 m 92 ft / 28 m
31 151 ft / 46 m 6,990 ft / 2,130 m 302.26° 315.23° Asphalt 0 ft / 0 m 361 ft / 110 m

TNCM

Details ICAO TNCM (SXM)
Name St Maarten - Princess Juliana Intl
Region Caribbean Netherlands, Aruba, Curaçao, Sint Maarten
Timezone Unknown (UTC+0.0)
Stats Elevation 12 ft / 4 m (AMSL)
Location 18.040889° -63.108974°
Runways 1
Magnetic Variation 14.337° W

METAR

TNCM 250800Z 09009KT 060V140 9999 SCT018 26/22 Q1016 A3002

Decode

TAF

TAF TNCM 250520Z 2506/2606 09009KT P6SM SCT018

Decode

Destination Runways

ID Width Length Bearing (true) Bearing (mag) Surface Threshold Offset Overrun Length
10 148 ft / 45 m 7,464 ft / 2,275 m 81.43° 95.77° Asphalt 0 ft / 0 m 151 ft / 46 m
28 148 ft / 45 m 7,464 ft / 2,275 m 261.44° 275.78° Asphalt 397 ft / 121 m 0 ft / 0 m

Popular Alternatives